Location: Derby
(52.9213°N, 1.4761°W)
Time: 01:43:45
(UTC+01:00)

A-11 Canister half - Pass Details

Date: 27 May 2025
Orbit: 1524 x 1684 km, 47.3° (Epoch: 12 June)

Event Time Altitude Azimuth Distance (km) Brightness Sun altitude
Rises 01:53:50 0° 284° (WNW) 4,802 11.6 -15.0°
Reaches altitude 10° 01:58:58 10° 261° (W) 3,847 10.9 -14.8°
Maximum altitude 02:03:21 14° 234° (SW) 3,558 10.5 -14.6°
Enters shadow 02:05:10 13° 222° (SW) 3,623 10.4 -14.5°
